[[{"header":{"parameterUnit":"m.s-1","parameterCategory":1,"la1":30.2991,"la2":30.254,"lo1":-89.0895,"lo2":-89.0444,"dy":0.0017,"dx":0.0017,"nx":28,"ny":28,"refTime":"2024-10-19T21:00:00:Z","depth":0,"parameterNumber":2,"parameterNumberName":"U-component_of_WINDS"},"data":[0,0,0,0,0,0,0,0,0,0,0,0,0,0,0,0,0,0,0,0,0,0,0,0,0,0,0,0,0,0,0,0,0,0,0,0,0,0,0,0,0,0,0,0,0,0,0,0,0,0,0,0,0,0,0,0,0,0,-2.4787,-2.4788,0,-2.4862,-2.4863,-2.4864,-2.4773,-2.477,-2.4766,-2.4763,-2.4844,-2.4849,-2.4855,0,0,0,0,0,0,0,0,0,0,0,0,0,-2.4568,-2.4572,-2.4787,-2.4788,-2.4789,-2.4862,-2.4863,-2.4864,-2.4774,-2.477,-2.4765,-2.4762,-2.4842,-2.4849,-2.4855,0,0,0,0,0,0,0,0,0,0,0,0,0,-2.4655,-2.4574,-2.4787,-2.4752,-2.475,-2.4862,-2.4863,-2.4864,-2.4775,-2.4769,-2.4764,-2.476,-2.484,-2.4848,-2.4856,-2.5006,0,0,-2.488,-2.4884,0,0,0,0,0,0,0,0,-2.465,-2.4663,-2.4756,-2.4755,-2.4752,-2.4803,-2.4815,-2.4912,-2.4776,-2.4765,-2.4763,-2.4757,-2.4835,-2.4843,-2.4868,-2.501,-2.5013,-2.4881,-2.4886,-2.4889,-2.4891,0,0,0,0,0,0,0,-2.4644,-2.466,-2.4817,-2.4758,-2.4756,-2.4734,-2.4741,-2.4833,-2.4828,-2.4766,-2.4759,-2.4769,-2.4833,-2.4861,-2.4869,-2.5015,-2.4881,-2.4888,-2.4893,-2.4896,-2.5283,-2.5288,0,0,0,0,0,0,-2.4642,-2.4655,-2.4814,-2.4819,-2.4688,-2.4742,-2.475,-2.4792,-2.4826,-2.4827,-2.4774,-2.4765,-2.485,-2.486,-2.4872,-2.5051,-2.4889,-2.4897,-2.4901,-2.5278,-2.5284,-2.529,0,0,0,0,0,0,-2.4637,-2.4657,-2.4811,-2.4735,-2.4753,-2.4751,-2.4799,-2.4796,-2.4824,-2.4832,-2.4831,-2.4803,-2.4846,-2.4861,-2.4973,-2.5052,-2.49,-2.4907,-2.5271,-2.528,-2.5287,-2.5409,0,0,0,0,0,0,-2.4632,-2.4656,-2.4712,-2.4737,-2.4758,-2.4911,-2.4804,-2.4801,-2.4837,-2.4827,-2.486,-2.486,-2.4843,-2.4962,-2.4981,-2.506,-2.4914,-2.5264,-2.5275,-2.5285,-2.5398,-2.5421,-2.544,0,0,0,0,0,-2.4624,-2.4745,-2.4716,-2.4736,-2.4828,-2.4916,-2.4927,-2.4904,-2.4844,-2.4902,-2.4906,-2.4859,-2.504,-2.4974,-2.4995,-2.5078,-2.5259,-2.5272,-2.5284,-2.5389,-2.5416,-2.544,0,0,0,0,0,0,-2.4731,-2.4747,-2.4716,-2.4847,-2.4881,-2.49,-2.4972,-2.4934,-2.4986,-2.4974,-2.4944,-2.4952,-2.5072,-2.5086,-2.5012,-2.5225,-2.514,-2.5157,-2.5212,-2.5238,-2.5259,-2.5254,-2.492,0,0,0,0,0,-2.477,-2.4838,-2.4849,-2.4964,-2.4982,-2.4974,-2.5012,-2.4991,-2.5024,-2.5039,-2.5052,-2.5087,-2.5152,-2.5195,-2.5255,-2.5399,-2.5405,-2.5466,-2.5487,-2.5504,-2.552,-2.5598,-2.5625,-2.5331,-2.5331,-2.5331,0,0,-2.4851,-2.4868,-2.4914,-2.4986,-2.501,-2.5082,-2.4987,-2.5068,-2.5122,-2.5051,-2.5158,-2.5169,-2.5207,-2.5335,-2.5393,-2.535,-2.5602,-2.552,-2.5533,-2.554,-2.5613,-2.5641,-2.5666,-2.534,-2.5338,-2.5337,0,0,-2.5037,-2.5056,-2.5154,-2.5179,-2.5215,-2.5208,-2.5232,-2.5257,-2.5261,-2.5367,-2.5316,-2.5379,-2.5491,-2.552,-2.555,-2.5745,-2.5704,-2.5765,-2.5875,-2.5951,-2.5974,-2.5995,-2.6066,-2.6091,-2.578,-2.5781,-2.5781,0,-2.5134,-2.5241,-2.521,-2.5295,-2.5329,-2.5265,-2.5366,-2.5391,-2.5446,-2.5471,-2.5422,-2.5561,-2.5581,-2.5716,-2.5764,-2.5789,-2.5816,-2.5763,-2.5973,-2.5993,-2.6012,-2.6079,-2.6106,-2.5788,-2.5787,-2.5786,-2.5786,0,-2.5359,-2.5433,-2.5509,-2.5561,-2.5603,-2.5695,-2.568,-2.5726,-2.5701,-2.57,-2.5809,-2.5831,-2.5895,-2.5924,-2.5901,-2.6057,-2.6029,-2.5977,-2.5891,-2.6048,-2.6111,-2.6136,-2.5799,-2.5796,-2.5794,-2.5792,0,0,-2.5617,-2.565,-2.5679,-2.5701,-2.5735,-2.5793,-2.5882,-2.5942,-2.5983,-2.6022,-2.6097,-2.6192,-2.6144,-2.6177,-2.6156,-2.6223,-2.6377,-2.6162,-2.6163,-2.6203,-2.6551,-2.6592,-2.6622,-2.6349,-2.6353,-2.6357,-2.6549,0,-2.5805,-2.5958,-2.5933,-2.6082,-2.6151,-2.6091,-2.6168,-2.6198,-2.6199,-2.6258,-2.6259,-2.6328,-2.6258,-2.6278,-2.634,-2.6345,-2.6447,-2.633,-2.642,-2.6424,-2.6415,-2.6655,-2.6699,-2.6879,-2.6573,-2.6577,-2.658,0,-2.6045,-2.6091,-2.6247,-2.6269,-2.6297,-2.6367,-2.6421,-2.6477,-2.651,-2.6506,-2.6542,-2.6509,-2.6598,-2.6509,-2.6633,-2.6554,-2.6589,-2.6596,-2.6603,-2.6613,-2.6513,-2.6674,-2.6935,-2.6963,-2.6618,-2.6615,-2.6612,0,-2.622,-2.6321,-2.6427,-2.6448,-2.6477,-2.6528,-2.6542,-2.6569,-2.6607,-2.6653,-2.6678,-2.6735,-2.6767,-2.6812,-2.6795,-2.6731,-2.6923,-2.6831,-2.6924,-2.6924,-2.6969,-2.6967,-2.7243,-2.6988,-2.6987,-2.6987,-2.6986,0,-2.6434,-2.6532,-2.6506,-2.6572,-2.6681,-2.665,-2.6758,-2.6765,-2.679,-2.6856,-2.6807,-2.6871,-2.6843,-2.6906,-2.6893,-2.6998,-2.7012,-2.7013,-2.7009,-2.7019,-2.7019,-2.7043,-2.7032,-2.6994,-2.6992,-2.6991,-2.699,0,-2.6649,-2.6636,-2.6748,-2.6765,-2.6771,-2.685,-2.6865,-2.6927,-2.6923,-2.7008,-2.7026,-2.702,-2.7091,-2.7077,-2.7156,-2.7147,-2.728,-2.7259,-2.7269,-2.7265,-2.7359,-2.7351,-2.7662,-2.7701,-2.7418,-2.7421,-2.7423,0,-2.6788,-2.6862,-2.6886,-2.6926,-2.6944,-2.701,-2.7048,-2.702,-2.7062,-2.7103,-2.7161,-2.7226,-2.7278,-2.7394,-2.7397,-2.7457,-2.7439,-2.7543,-2.7448,-2.7455,-2.7443,-2.744,-2.7448,-2.7563,-2.7567,-2.7569,-2.7571,0,-2.7036,-2.7025,-2.7081,-2.7135,-2.7181,-2.7222,-2.7259,-2.7295,-2.727,-2.7319,-2.739,-2.743,-2.7509,-2.7576,-2.7631,-2.7646,-2.7606,-2.7601,-2.7625,-2.7638,-2.7642,-2.7643,-2.7324,-2.7595,-2.7592,-2.7591,-2.7589,-2.7588,-2.7219,-2.7282,-2.7309,-2.7372,-2.7396,-2.7431,-2.749,-2.7493,-2.7551,-2.7612,-2.7592,-2.7673,-2.7703,-2.7772,-2.7794,-2.7858,-2.7819,-2.7855,-2.7864,-2.7874,-2.7886,-2.7629,-2.7867,-2.7866,-2.7866,-2.7865,-2.7865,0,-2.7466,-2.748,-2.7538,-2.759,-2.7641,-2.7595,-2.7633,-2.7679,-2.775,-2.7781,-2.7831,-2.7913,-2.7977,-2.7984,-2.8045,-2.8095,-2.8078,-2.8112,-2.8109,-2.8114,-2.7916,-2.789,-2.8125,-2.8124,-2.8124,-2.8124,-2.8124,-2.8124,-2.7601,-2.7706,-2.7698,-2.7814,-2.7826,-2.7905,-2.793,-2.7963,-2.7987,-2.808,-2.8132,-2.8135,-2.8157,-2.8218,-2.8275,-2.8275,-2.8301,-2.8343,-2.8337,-2.8153,-2.8128,-2.8103,-2.8078,-2.8348,-2.8349,-2.8529,-2.8531,-2.8532]},{"header":{"parameterUnit":"m.s-1","parameterCategory":1,"la1":30.2991,"la2":30.254,"lo1":-89.0895,"lo2":-89.0444,"dy":0.0017,"dx":0.0017,"nx":28,"ny":28,"refTime":"2024-10-19T21:00:00:Z","depth":0,"parameterNumber":3,"parameterNumberName":"V-component_of_WINDS"},"data":[0,0,0,0,0,0,0,0,0,0,0,0,0,0,0,0,0,0,0,0,0,0,0,0,0,0,0,0,0,0,0,0,0,0,0,0,0,0,0,0,0,0,0,0,0,0,0,0,0,0,0,0,0,0,0,0,0,0,-3.1922,-3.1922,0,-3.1941,-3.1941,-3.1941,-3.1888,-3.1887,-3.1885,-3.1884,-3.1901,-3.1903,-3.1905,0,0,0,0,0,0,0,0,0,0,0,0,0,-3.184,-3.1841,-3.1922,-3.1923,-3.1923,-3.1941,-3.1941,-3.1941,-3.1889,-3.1887,-3.1885,-3.1883,-3.19,-3.1903,-3.1905,0,0,0,0,0,0,0,0,0,0,0,0,0,-3.1868,-3.1842,-3.1922,-3.1899,-3.1897,-3.194,-3.1941,-3.1941,-3.1889,-3.1887,-3.1884,-3.1882,-3.1899,-3.1902,-3.1905,-3.1972,0,0,-3.1914,-3.1916,0,0,0,0,0,0,0,0,-3.1867,-3.1872,-3.1902,-3.1901,-3.1898,-3.191,-3.1918,-3.1951,-3.189,-3.1892,-3.1884,-3.1881,-3.1906,-3.1908,-3.1917,-3.1973,-3.1973,-3.1914,-3.1916,-3.1918,-3.1918,0,0,0,0,0,0,0,-3.1865,-3.187,-3.1929,-3.1903,-3.19,-3.1887,-3.1888,-3.1924,-3.1912,-3.1892,-3.1888,-3.1891,-3.1904,-3.1914,-3.1917,-3.1974,-3.1914,-3.1917,-3.1919,-3.192,-3.2083,-3.2086,0,0,0,0,0,0,-3.1866,-3.1869,-3.1929,-3.193,-3.1876,-3.189,-3.1892,-3.1909,-3.1912,-3.191,-3.1893,-3.1888,-3.191,-3.1913,-3.1917,-3.1994,-3.1918,-3.192,-3.1922,-3.2081,-3.2084,-3.2087,0,0,0,0,0,0,-3.1865,-3.1872,-3.1928,-3.1899,-3.1905,-3.1894,-3.1913,-3.191,-3.192,-3.1913,-3.191,-3.1905,-3.1908,-3.1913,-3.1958,-3.1994,-3.1922,-3.1924,-3.2078,-3.2082,-3.2085,-3.2149,0,0,0,0,0,0,-3.1863,-3.1872,-3.1898,-3.19,-3.1906,-3.197,-3.1916,-3.1912,-3.1925,-3.1919,-3.1923,-3.1922,-3.1907,-3.1954,-3.1961,-3.1997,-3.1927,-3.2074,-3.208,-3.2084,-3.2144,-3.2155,-3.2164,0,0,0,0,0,-3.186,-3.1915,-3.1899,-3.1907,-3.1939,-3.1972,-3.1976,-3.1958,-3.1928,-3.1954,-3.1949,-3.1922,-3.1989,-3.1959,-3.1967,-3.2004,-3.2072,-3.2078,-3.2084,-3.2139,-3.2153,-3.2164,0,0,0,0,0,0,-3.1917,-3.1915,-3.1897,-3.1955,-3.1964,-3.1963,-3.1995,-3.1973,-3.199,-3.1984,-3.1961,-3.1962,-3.2011,-3.2012,-3.1979,-3.2067,-3.2025,-3.2033,-3.2065,-3.2078,-3.2088,-3.2086,-3.1929,0,0,0,0,0,-3.1937,-3.1965,-3.1961,-3.2012,-3.2018,-3.2006,-3.202,-3.2005,-3.2013,-3.2017,-3.2015,-3.2024,-3.2047,-3.2062,-3.2083,-3.2144,-3.2143,-3.2173,-3.2183,-3.2191,-3.2198,-3.2228,-3.2241,-3.2106,-3.2106,-3.2106,0,0,-3.1977,-3.1979,-3.1998,-3.2024,-3.2029,-3.2058,-3.2009,-3.2042,-3.2062,-3.2021,-3.2064,-3.2063,-3.2071,-3.2124,-3.2148,-3.2126,-3.2235,-3.2199,-3.2205,-3.2207,-3.2236,-3.2249,-3.226,-3.211,-3.2109,-3.2108,0,0,-3.2065,-3.207,-3.2113,-3.2119,-3.2128,-3.2119,-3.2129,-3.2132,-3.213,-3.2172,-3.2141,-3.2165,-3.2206,-3.2212,-3.2221,-3.2311,-3.2286,-3.2318,-3.2371,-3.2401,-3.2411,-3.2421,-3.2451,-3.2463,-3.2325,-3.2325,-3.2325,0,-3.2114,-3.2156,-3.2137,-3.2172,-3.2183,-3.2147,-3.2189,-3.2196,-3.2212,-3.222,-3.2196,-3.2245,-3.2248,-3.2301,-3.2323,-3.2332,-3.2342,-3.2317,-3.2412,-3.2421,-3.2429,-3.2458,-3.247,-3.2329,-3.2328,-3.2328,-3.2327,0,-3.2215,-3.2245,-3.2278,-3.2294,-3.2309,-3.2347,-3.2333,-3.235,-3.2334,-3.2328,-3.2371,-3.2373,-3.2393,-3.2405,-3.239,-3.2456,-3.2442,-3.2416,-3.2373,-3.2446,-3.2473,-3.2484,-3.2334,-3.2333,-3.2332,-3.2331,0,0,-3.234,-3.2344,-3.2356,-3.2362,-3.2369,-3.2391,-3.2427,-3.2447,-3.2462,-3.2474,-3.2502,-3.2537,-3.2512,-3.2522,-3.2507,-3.2534,-3.2603,-3.2503,-3.2503,-3.2521,-3.2674,-3.2693,-3.2707,-3.2587,-3.2589,-3.259,-3.2673,0,-3.2425,-3.2488,-3.2471,-3.2532,-3.2559,-3.2525,-3.2556,-3.2563,-3.2558,-3.2579,-3.2574,-3.2598,-3.2564,-3.2569,-3.2595,-3.2589,-3.2633,-3.2583,-3.2612,-3.2613,-3.261,-3.2721,-3.2742,-3.2819,-3.2683,-3.2685,-3.2687,0,-3.2534,-3.2549,-3.2613,-3.2615,-3.2625,-3.2654,-3.267,-3.2691,-3.2698,-3.2692,-3.2703,-3.2682,-3.2717,-3.2674,-3.2721,-3.2687,-3.2698,-3.2697,-3.27,-3.2701,-3.2654,-3.2724,-3.2844,-3.2855,-3.2703,-3.2702,-3.2701,0,-3.2616,-3.2653,-3.2696,-3.2703,-3.2705,-3.2726,-3.2728,-3.2732,-3.2745,-3.2759,-3.2767,-3.2785,-3.2794,-3.2808,-3.2793,-3.2764,-3.2841,-3.2798,-3.2836,-3.2837,-3.2853,-3.2852,-3.2976,-3.2863,-3.2863,-3.2862,-3.2862,0,-3.2713,-3.2753,-3.2733,-3.276,-3.2803,-3.2783,-3.2827,-3.2825,-3.2829,-3.2854,-3.2826,-3.2849,-3.2828,-3.285,-3.2838,-3.2877,-3.2882,-3.2877,-3.2874,-3.2879,-3.288,-3.2885,-3.2879,-3.2865,-3.2865,-3.2864,-3.2864,0,-3.2812,-3.2801,-3.2845,-3.2844,-3.2845,-3.2877,-3.2875,-3.2899,-3.2892,-3.2923,-3.293,-3.2918,-3.2942,-3.2928,-3.2952,-3.2944,-3.2995,-3.2985,-3.2993,-3.299,-3.3028,-3.3024,-3.3159,-3.3175,-3.3053,-3.3054,-3.3055,0,-3.2874,-3.2904,-3.2906,-3.2921,-3.2925,-3.2949,-3.2961,-3.2943,-3.2957,-3.2966,-3.2989,-3.301,-3.3026,-3.3065,-3.3059,-3.3077,-3.3065,-3.3111,-3.3068,-3.3072,-3.3065,-3.3063,-3.3065,-3.312,-3.3121,-3.3122,-3.3123,0,-3.2985,-3.2977,-3.2997,-3.3014,-3.303,-3.3043,-3.3053,-3.3066,-3.3047,-3.3065,-3.3088,-3.3101,-3.3125,-3.3146,-3.3162,-3.3163,-3.314,-3.3137,-3.3147,-3.3152,-3.3155,-3.3153,-3.3015,-3.3134,-3.3133,-3.3132,-3.3132,-3.3131,-3.3066,-3.3091,-3.3096,-3.3118,-3.3124,-3.3134,-3.3156,-3.3151,-3.3171,-3.3189,-3.3177,-3.3205,-3.321,-3.3228,-3.3232,-3.3253,-3.3235,-3.3249,-3.3252,-3.3256,-3.326,-3.3153,-3.3256,-3.3256,-3.3255,-3.3255,-3.3255,0,-3.3174,-3.3175,-3.3196,-3.3211,-3.3228,-3.3206,-3.3216,-3.3231,-3.3256,-3.3263,-3.3279,-3.3306,-3.3326,-3.3322,-3.3339,-3.3357,-3.3347,-3.3362,-3.336,-3.3361,-3.3277,-3.3266,-3.337,-3.337,-3.337,-3.337,-3.337,-3.337,-3.3232,-3.3272,-3.3265,-3.3307,-3.3308,-3.3336,-3.3343,-3.3352,-3.3357,-3.3388,-3.3405,-3.3402,-3.3403,-3.3421,-3.3438,-3.3436,-3.3443,-3.3463,-3.3457,-3.3378,-3.3367,-3.3356,-3.3345,-3.3465,-3.3465,-3.3538,-3.3539,-3.354]}]]